SL-16 DEB, 22398

Orbit data source: Space-Track

SL-16 DEB, 22398 is space debris in LEO originally from a launch on Fri, 25 Dec 1992 UTC launched from the Tyuratam Missile And Space Complex (TTMTR). Debris objects in space refer to the collection of defunct objects orbiting the Earth. Examples of debris include non-operational satellites, rocket bodies, and fragments generated from explosions, collisions, or faulty payload assembly.

Loading next visibility...
Identifier
22398, 1992-093CP
Orbit
LEO
Country
Flag of CISCIS
Related business
Manufacturer
Unknown
Mission
Spacecraft
Bus & Motor
Unknown
Mass
Unknown
Launch date (UTC)
1992-12-25 (33 years ago)
Launch vehicle
Unknown
Launch site
Tyuratam Missile And Space Complex (TTMTR)
Object type
Payload
Rocket body
Debris
Shape & HBR
Unknown shape, 0.1 m
Radar Cross Section
Small (<0.1 m²)

Expand to show TLE details & history
Last TLE update: 20 hours ago

TLE from 20 hours ago
0 SL-16 DEB
1 22398U 92093CP  26036.86513010  .00001540  00000-0  87458-3 0  9993
2 22398  70.9500 210.0876 0108705 170.7613 189.5542 14.08564416690588
Epoch: 2026-02-05T20:45Z
TLE epoch observation values (Epoch: 2026-02-05T20:45:47.240Z)
Latitude
Longitude
122.62954°
Altitude
944.35 km
Speed
7.34 km/s
True Right ascension
14h 00m 21s
True Declination
0° 00' 00"
Sunlit
Object was in daylight at epoch
Visualization orbit readout
Latitude
Unknown
Longitude
Unknown
Altitude
Unknown
Speed
Unknown
Apparent Right ascension
Unknown
Apparent Declination
Unknown
Sunlit
N/A
Visualization observer readout
Local Sidereal Time
19:02:53
Azimuth
Unknown
Elevation
Unknown
Doppler factor
Unknown
Orbital elements
Apogee altitude
940.931 km
Perigee altitude
783.518 km
Semi-major axis
7,240.361 km
Eccentricity
0.01087
Inclination
70.95°
RAAN
210.0876°
Arg. of periapsis
170.7613°
True anomaly
189.35018°
Mean anomaly
189.5542°
Eccentric anomaly
189.45192°
Mean motion
3.52292 °/min
Orbital period
102.19 mins
BSTAR
0.00087458
Loading maneuver chart data...
Computing Atmospheric mass density...
Loading historical data...
Loading historical data...
Loading historical data...
Loading historical data...
Loading historical data...
Loading historical data...
Loading historical data...

Documentation

Showing up to 5 results
|